1366934434880,2.12221
1366934494880,2.13789
1366934554880,2.12207
1366934614880,2.14533
1366934674880,2.12378
1366934734880,2.13509
1366934794880,2.15582
1366934854880,2.12405
1366934914880,2.15728
1366934974880,2.15597
1366935034880,2.13538
1366935094880,2.13445
1366935154880,2.13786
1366935214880,2.14247
1366935274880,2.10836
1366935334880,2.13844
1366935394880,2.13769
1366935454880,2.13936
1366935514880,2.15216
1366935574880,2.18783
1366935634880,2.15615
1366935694880,2.15794
1366935754880,2.15561
1366935814880,2.13700
1366935874880,2.14213
1366935934880,2.14292
1366935994880,2.13824
1366936054880,2.13876
1366936114880,2.14726
1366936174880,2.13163
1366936234880,2.14565
1366936294880,2.15177
1366936354880,2.12759
1366936414880,2.14727
1366936474880,2.18521
1366936534880,2.20922
1366936594880,2.16078
1366936654880,2.16587
1366936714880,2.03889
1366936774880,2.16280
1366936834880,2.14454
1366936894880,2.14982
1366936954880,2.14787
1366937014880,2.16078
1366937074880,2.14875
1366937134880,2.16831
1366937194880,2.15528
1366937254880,2.14949
1366937314880,2.16712
1366937374880,2.16332
1366937434880,2.17496
1366937494880,2.19162
1366937554880,2.17440
1366937614880,2.17322
1366937674880,2.16958
1366937734880,2.16265
1366937794880,2.16400
1366937854880,2.14048
1366937914880,2.18171
1366937974880,2.19028
1366938034890,2.15449
1366938094890,2.15878
1366938154890,2.15339
1366938214890,2.19824
1366938274890,2.17789
1366938334890,2.17719
1366938394890,2.18099
1366938454890,2.15334
1366938514890,2.17254
1366938574890,2.20199
1366938634890,2.16713
1366938694890,2.18788
1366938754890,2.19137
1366938814890,2.16770
1366938874890,2.20984
1366938934890,2.18090
1366938994890,2.20008
1366939054890,2.19757
1366939114890,2.18422
1366939174890,2.19401
1366939234890,2.18418
1366939294890,2.19575
1366939354890,2.20152
1366939414890,2.20047
1366939474890,2.16182
1366939534890,2.22327
1366939594890,2.19614
1366939654890,2.18366
1366939714890,2.17178
1366939774890,2.18915
1366939834890,2.16160
1366939894890,2.19251
1366939954890,2.20984
1366940014890,2.20750
1366940074890,2.18787
1366940134890,2.20824
1366940194890,2.19466
1366940254890,2.20312
1366940314890,2.20162
1366940374890,2.20947
1366940434890,2.19803
1366940494890,2.21649
1366940554890,2.19066
1366940614890,2.20613
1366940674890,2.20309
1366940734890,2.21653
1366940794890,2.23907
1366940854890,2.18350
1366940914890,2.19074
1366940974890,2.21439
1366941034890,2.20714
1366941094890,2.21290
1366941154890,2.21048
1366941214890,2.20138
1366941274890,2.20532
1366941334890,2.21613
1366941394890,2.22841
1366941454890,2.20617
1366941514890,2.19937
1366941574890,2.19810
1366941634901,2.29875
1366941694901,2.20174
1366941754901,2.20882
1366941814901,2.21429
1366941874901,2.20384
1366941934901,2.17963
1366941994901,2.19044
1366942054901,2.22208
1366942114901,2.22679
1366942174901,2.20195
1366942234901,2.17695
1366942294901,2.19335
1366942354901,2.19713
1366942414901,2.20627
1366942474901,2.16585
1366942534901,2.19642
1366942594901,2.21904
1366942654901,2.17221
1366942714901,2.17229
1366942774901,2.18393
1366942834901,2.14424
1366942894901,2.21231
1366942954901,2.16208
1366943014901,2.17883
1366943074901,2.15298
1366943134901,2.20187
1366943194901,2.17367
1366943254901,2.17736
1366943314901,2.16466
1366943374901,2.20723
1366943434901,2.21554
1366943494901,2.21079
1366943554901,2.19920
1366943614901,2.16024
1366943674901,2.19704
1366943734901,2.21182
1366943794901,2.18508
1366943854901,2.17018
1366943914901,2.18019
1366943974901,2.17613
1366944034901,2.20308
1366944094901,2.21811
1366944154901,2.18682
1366944214901,2.16026
1366944274901,2.18071
1366944334901,2.19650
1366944394901,2.17582
1366944454901,2.19320
1366944514901,2.19626
1366944574901,2.16509
1366944634901,2.17674
1366944694901,2.19936
1366944754901,2.18271
1366944814901,2.19712
1366944874901,2.21015
1366944934901,2.19730
1366944994901,2.19597
1366945054901,2.20707
1366945114901,2.18585
1366945174901,2.16169
1366945234912,2.19284
1366945294912,2.18585
1366945354912,2.18812
1366945414912,2.19033
1366945474912,2.19210
1366945534912,2.20469
1366945594912,2.20109
1366945654912,2.19889
1366945714912,2.19447
1366945774912,2.17276
1366945834912,2.25167
1366945894912,2.20029
1366945954912,2.20643
1366946014912,2.17484
1366946074912,2.19773
1366946134912,2.20239
1366946194912,2.20744
1366946254912,2.19092
1366946314912,2.19698
1366946374912,2.19023
1366946434912,2.18928
1366946494912,2.16267
1366946554912,2.19161
1366946614912,2.19261
1366946674912,2.21089
1366946734912,2.18362
1366946794912,2.17898
1366946854912,2.17882
1366946914912,2.17012
1366946974912,2.17783
1366947034912,2.14614
1366947094912,2.13991
1366947154912,2.16283
1366947214912,2.15236
1366947274912,2.16178
1366947334912,2.16317
1366947394912,2.18835
1366947454912,2.17744
1366947514912,2.17355
1366947574912,2.19579
1366947634912,2.16681
1366947694912,2.15877
1366947754912,2.16903
1366947814912,2.16433
1366947874912,2.19674
1366947934912,2.16545
1366947994912,2.14840
1366948054912,2.12836
1366948114912,2.15243
1366948174912,2.16700
1366948234912,2.16716
1366948294912,2.14205
1366948354912,2.14339
1366948414912,2.14996
1366948474912,2.14505
1366948534912,2.15766
1366948594912,2.15155
1366948654912,2.14824
1366948714912,2.15262
1366948774912,2.12800
1366948834922,2.14080
1366948894922,2.11575
1366948954922,2.15415
1366949014922,2.14926
1366949074922,2.13887
1366949134922,2.12959
1366949194922,2.15438
1366949254922,2.12719
1366949314922,2.12335
1366949374922,2.13661
1366949434922,2.13163
1366949494922,2.14263
1366949554922,2.17125
1366949614922,2.13734
1366949674922,2.13866
1366949734922,2.13777
1366949794922,2.13462
1366949854922,2.14049
1366949914922,2.13891
1366949974922,2.12213
1366950034922,2.15156
1366950094922,2.13754
1366950154922,2.13325
1366950214922,2.13647
1366950274922,2.15230
1366950334922,2.15611
1366950394922,2.14278
1366950454922,2.10760
1366950514922,2.13379
1366950574922,2.15182
1366950634922,2.12939
1366950694922,2.15170
1366950754922,2.17320
1366950814922,2.15294
1366950874922,2.15223
1366950934922,2.13528
1366950994922,2.12170
1366951054922,2.15064
1366951114922,2.13120
1366951174922,2.14856
1366951234922,2.14304
1366951294922,2.16177
1366951354922,2.15522
1366951414922,2.15524
1366951474922,2.15105
1366951534922,2.15560
1366951594922,2.16229
1366951654922,2.13769
1366951714922,2.11630
1366951774922,2.13147
1366951834922,2.11885
1366951894922,2.11439
1366951954922,2.17688
1366952014922,2.14781
1366952074922,2.13606
1366952134922,2.13185
1366952194922,2.14481
1366952254922,2.12317
1366952314922,2.15366
1366952374922,2.14307
1366952434932,2.13066
1366952494932,2.13239
1366952554932,2.14371
1366952614932,2.12826
1366952674932,2.14280
1366952734932,2.14215
1366952794932,2.14337
1366952854932,2.14496
1366952914932,2.14915
1366952974932,2.14265
1366953034932,2.13605
1366953094932,2.14983
1366953154932,2.19586
1366953214932,2.15413
1366953274932,2.14829
1366953334932,2.14289
1366953394932,2.13824
1366953454932,2.18115
1366953514932,2.15452
1366953574932,2.13667
1366953634932,2.15060
1366953694932,2.14361
1366953754932,2.17322
1366953814932,2.17164
1366953874932,2.14270
1366953934932,2.14165
1366953994932,2.14955
1366954054932,2.15965
1366954114932,2.15178
1366954174932,2.14033
1366954234932,2.15451
1366954294932,2.14022
1366954354932,2.15457
1366954414932,2.16548
1366954474932,2.14949
1366954534932,2.16449
1366954594932,2.13955
1366954654932,2.15180
1366954714932,2.15745
1366954774932,2.12793
1366954834932,2.14774
1366954894932,2.15303
1366954954932,2.16737
1366955014932,2.15040
1366955074932,2.15190
1366955134932,2.13225
1366955194932,2.15672
1366955254932,2.16508
1366955314932,2.13433
1366955374932,2.16191
1366955434932,2.14725
1366955494932,2.13180
1366955554932,2.12632
1366955614932,2.16730
1366955674932,2.13744
1366955734932,2.15049
1366955794932,2.13196
1366955854932,2.12735
1366955914932,2.13838
1366955974932,2.13275
1366956034942,2.13781
1366956094942,2.14525
1366956154942,2.11837
1366956214942,2.11409
1366956274942,2.14289
1366956334942,2.14055
1366956394942,2.13638
1366956454942,2.12459
1366956514942,2.11951
1366956574942,2.16049
1366956634942,2.14374
1366956694942,2.14920
1366956754942,2.14305
1366956814942,2.13174
1366956874942,2.10869
1366956934942,2.15556
1366956994942,2.14721
1366957054942,2.12567
1366957114942,2.13850
1366957174942,2.14150
1366957234942,2.16213
1366957294942,2.11372
1366957354942,2.12584
1366957414942,2.13502
1366957474942,2.15949
1366957534942,2.12558
1366957594942,2.18194
1366957654942,2.15219
1366957714942,2.16676
1366957774942,2.16007
1366957834942,2.18448
1366957894942,2.16769
1366957954942,2.16240
1366958014942,2.17876
1366958074942,2.15097
1366958134942,2.17349
1366958194942,2.15516
1366958254942,2.15493
1366958314942,2.14564
1366958374942,2.14096
1366958434942,2.15729
1366958494942,2.17979
1366958554942,2.14111
1366958614942,2.15993
1366958674942,2.14828
1366958734942,2.12898
1366958794942,2.15842
1366958854942,2.14600
1366958914942,2.13739
1366958974942,2.13266
1366959034942,2.14350
1366959094942,2.16823
1366959154942,2.15891
1366959214942,2.11773
1366959274942,2.13342
1366959334942,2.14929
1366959394942,2.13321
1366959454942,2.14010
1366959514942,2.13348
1366959574942,2.15559
1366959634952,2.15970
1366959694952,2.14535
1366959754952,2.28192
1366959814952,2.15743
1366959874952,2.14859
1366959934952,2.17160
1366959994952,2.13910
1366960054952,2.16762
1366960114952,2.13551
1366960174952,2.15468
1366960234952,2.15850
1366960294952,2.15867
1366960354952,2.14502
1366960414952,2.14468
1366960474952,2.16761
1366960534952,2.16860
1366960594952,2.13021
1366960654952,2.06028
1366960714952,2.15020
1366960774952,2.18403
1366960834952,2.16970
1366960894952,2.16112
1366960954952,2.15194
1366961014952,2.15094
1366961074952,2.13891
1366961134952,2.18625
1366961194952,2.15678
1366961254952,2.19775
1366961314952,2.17683
1366961374952,2.15968
1366961434952,2.17910
1366961494952,2.15961
1366961554952,2.18040
1366961614952,2.17645
1366961674952,2.19384
1366961734952,2.15198
1366961794952,2.15944
1366961854952,2.15135
1366961914952,2.19028
1366961974952,2.13894
1366962034952,2.14831
1366962094952,2.15596
1366962154952,2.16318
1366962214952,2.15025
1366962274952,2.15345
1366962334952,2.17293
1366962394952,2.16287
1366962454952,2.13668
1366962514952,2.16347
1366962574952,2.16686
1366962634952,2.16094
1366962694952,2.15199
1366962754952,2.15252
1366962814952,2.17291
1366962874952,2.17484
1366962934952,2.16773
1366962994952,2.15224
1366963054952,2.16434
1366963114952,2.16691
1366963174952,2.15564
1366963234962,2.17082
1366963294962,2.14441
1366963354962,2.14729
1366963414962,2.18495
1366963474962,2.18583
1366963534962,2.18344
1366963594962,2.16539
1366963654962,2.15222
1366963714962,2.16053
1366963774962,2.17626
1366963834962,2.15158
1366963894962,2.16780
1366963954962,2.17285
1366964014962,2.17387
1366964074962,2.14720
1366964134962,2.13798
1366964194962,2.13775
1366964254962,2.15838
1366964314962,2.15513
1366964374962,2.16696
1366964434962,2.16142
1366964494962,2.15069
1366964554962,2.14736
1366964614962,2.15068
1366964674962,2.15507
1366964734962,2.15247
1366964794962,2.13504
1366964854962,2.17110
1366964914962,2.15271
1366964974962,2.15586
1366965034962,2.16951
1366965094962,2.12967
1366965154962,2.14765
1366965214962,2.16261
1366965274962,2.16276
1366965334962,2.16643
1366965394962,2.14513
1366965454962,2.15023
1366965514962,2.17661
1366965574962,2.15963
1366965634962,2.15883
1366965694962,2.18326
1366965754962,2.16551
1366965814962,2.17303
1366965874962,2.17197
1366965934962,2.19779
1366965994962,2.16504
1366966054962,2.18831
1366966114962,2.16867
1366966174962,2.17124
1366966234962,2.17233
1366966294962,2.16321
1366966354962,2.17052
1366966414962,2.17008
1366966474962,2.15853
1366966534962,2.15944
1366966594962,2.20468
1366966654962,2.14157
1366966714962,2.18758
1366966774962,2.17848
1366966834972,2.16696
1366966894972,2.18913
1366966954972,2.17641
1366967014972,2.18548
1366967074972,2.20520
1366967134972,2.19345
1366967194972,2.21675
1366967254972,2.20116
1366967314972,2.18316
1366967374972,2.17872
1366967434972,2.18849
1366967494972,2.15803
1366967554972,2.15735
1366967614972,2.16633
1366967674972,2.18612
1366967734972,2.19366
1366967794972,2.17409
1366967854972,2.19838
1366967914972,2.19081
1366967974972,2.16872
1366968034972,2.18895
1366968094972,2.18729
1366968154972,2.17827
1366968214972,2.19254
1366968274972,2.20372
1366968334972,2.17929
1366968394972,2.20256
1366968454972,2.20589
1366968514972,2.18755
1366968574972,2.19575
1366968634972,2.20958
1366968694972,2.19776
1366968754972,2.19186
1366968814972,2.18402
1366968874972,2.19036
1366968934972,2.20205
1366968994972,2.18232
1366969054972,2.18437
1366969114972,2.18284
1366969174972,2.21062
1366969234972,2.19547
1366969294972,2.18723
1366969354972,2.19175
1366969414972,2.18869
1366969474972,2.21126
1366969534972,2.19387
1366969594972,2.19022
1366969654972,2.18190
1366969714972,2.20163
1366969774972,2.20309
1366969834972,2.24472
1366969894972,2.20813
1366969954972,2.21050
1366970014972,2.19343
1366970074972,2.20821
1366970134972,2.23299
1366970194972,2.19858
1366970254972,2.18063
1366970314972,2.18813
1366970374972,2.18699
1366970434982,2.20651
1366970494982,2.19685
1366970554982,2.19938
1366970614982,2.21923
1366970674982,2.19978
1366970734982,2.20935
1366970794982,2.21747
1366970854982,2.21041
1366970914982,2.18152
1366970974982,2.19477
1366971034982,2.19688
1366971094982,2.20040
1366971154982,2.18328
1366971214982,2.19623
1366971274982,2.21511
1366971334982,2.21743
1366971394982,2.21695
1366971454982,2.19309
1366971514982,2.19562
1366971574982,2.20466
1366971634982,2.21427
1366971694982,2.19616
1366971754982,2.20860
1366971814982,2.21033
1366971874982,2.20645
1366971934982,2.23631
1366971994982,2.21475
1366972054982,2.22464
1366972114982,2.17478
1366972174982,2.20165
1366972234982,2.20711
1366972294982,2.19419
1366972354982,2.19353
1366972414982,2.20661
1366972474982,2.18273
1366972534982,2.20294
1366972594982,2.20591
1366972654982,2.20266
1366972714982,2.19591
1366972774982,2.19612
1366972834982,2.19826
1366972894982,2.20539
1366972954982,2.20640
1366973014982,2.21771
1366973074982,2.21472
1366973134982,2.22371
1366973194982,2.19136
1366973254982,2.19894
1366973314982,2.21429
1366973374982,2.18435
1366973434982,2.20796
1366973494982,2.20728
1366973554982,2.19388
1366973614982,2.19480
1366973674982,2.18880
1366973734982,2.22745
1366973794982,2.22380
1366973854982,2.19086
1366973914982,2.18296
1366973974982,2.19038
1366974034992,2.19998
1366974094992,2.23975
1366974154992,2.19165
1366974214992,2.19536
1366974274992,2.21992
1366974334992,2.19279
1366974394992,2.18132
1366974454992,2.20183
1366974514992,2.18381
1366974574992,2.20159
1366974634992,2.19988
1366974694992,2.20867
1366974754992,2.18657
1366974814992,2.20267
1366974874992,2.18750
1366974934992,2.16613
1366974994992,2.17402
1366975054992,2.17637
1366975114992,2.20451
1366975174992,2.20865
1366975234992,2.20852
1366975294992,2.19960
1366975354992,2.18091
1366975414992,2.18005
1366975474992,2.16098
1366975534992,2.20073
1366975594992,2.17368
1366975654992,2.18039
1366975714992,2.17576
1366975774992,2.18409
1366975834992,2.18446
1366975894992,2.18175
1366975954992,2.21122
1366976014992,2.17819
1366976074992,2.19916
1366976134992,2.21105
1366976194992,2.20690
1366976254992,2.18655
1366976314992,2.19825
1366976374992,2.19054
1366976434992,2.18749
1366976494992,2.17840
1366976554992,2.18854
1366976614992,2.16126
1366976674992,2.20490
1366976734992,2.18083
1366976794992,2.19920
1366976854992,2.15987
1366976914992,2.18630
1366976974992,2.18261
1366977034992,2.19858
1366977094992,2.18490
1366977154992,2.20791
1366977214992,2.19169
1366977274992,2.18095
1366977334992,2.18977
1366977394992,2.19134
1366977454992,2.18538
1366977514992,2.19870
1366977574992,2.21569
1366977625002,2.18395
1366977685002,2.18953
1366977745002,2.23497
1366977805002,2.20896
1366977865002,2.20529
1366977925002,2.20441
1366977985002,2.19974
1366978045002,2.22443
1366978105002,2.19036
1366978165002,2.18152
1366978225002,2.19649
1366978285002,2.20477
1366978345002,2.18774
1366978405002,2.16680
1366978465002,2.19548
1366978525002,2.17512
1366978585002,2.19408
1366978645002,2.20051
1366978705002,2.20166
1366978765002,2.20266
1366978825002,2.18398
1366978885002,2.17965
1366978945002,2.20695
1366979005002,2.19087
1366979065002,2.21568
1366979125002,2.20049
1366979185002,2.16563
1366979245002,2.18704
1366979305002,2.19802
1366979365002,2.18473
1366979425002,2.20669
1366979485002,2.19515
1366979545002,2.17179
1366979605002,2.19004
1366979665002,2.20045
1366979725002,2.18787
1366979785002,2.20969
1366979845002,2.20967
1366979905002,2.22258
1366979965002,2.19382
1366980025002,2.19921
1366980085002,2.21408
1366980145002,2.20240
1366980205002,2.20245
1366980265002,2.20611
1366980325002,2.19171
1366980385002,2.17508
1366980445002,2.20235
1366980505002,2.20259
1366980565002,2.19602
1366980625002,2.18354
1366980685002,2.19149
1366980745002,2.20547
1366980805002,2.21473
1366980865002,2.17961
1366980925002,2.19641
1366980985002,2.20592
1366981045002,2.21958
1366981105002,2.19708
1366981165002,2.21314
1366981225011,2.18664
1366981285011,2.21259
1366981345011,2.18154
1366981405011,2.20694
1366981465011,2.20946
1366981525011,2.21720
1366981585011,2.22115
1366981645011,2.21428
1366981705011,2.18413
1366981765011,2.20489
1366981825011,2.20165
1366981885011,2.19922
1366981945011,2.17636
1366982005011,2.21383
1366982065011,2.19157
1366982125011,2.20700
1366982185011,2.22448
1366982245011,2.19726
1366982305011,2.20035
1366982365011,2.20370
1366982425011,2.65942
1366982485011,2.20199
1366982545011,2.20643
1366982605011,2.20851
1366982665011,2.21942
1366982725011,2.19450
1366982785011,2.18894
1366982845011,2.21702
1366982905011,2.21045
1366982965011,2.19073
1366983025011,2.20183
1366983085011,2.22336
1366983145011,2.22619
1366983205011,2.22113
1366983265011,2.21015
1366983325011,2.22886
1366983385011,2.19920
1366983445011,2.18787
1366983505011,2.22734
1366983565011,2.21891
1366983625011,2.25547
1366983685011,2.20429
1366983745011,2.24609
1366983805011,2.20105
1366983865011,2.21775
1366983925011,2.21533
1366983985011,2.20687
1366984045011,2.21224
1366984105011,2.22186
1366984165011,2.22246
1366984225011,2.22464
1366984285011,2.18630
1366984345011,2.24679
1366984405011,2.23498
1366984465011,2.20595
1366984525011,2.20969
1366984585011,2.19892
1366984645011,2.20401
1366984705011,2.20552
1366984765011,2.19511
1366984825021,2.19847
1366984885021,2.20713
1366984945021,2.22816
1366985005021,2.19683
1366985065021,2.21837
1366985125021,2.20551
1366985185021,2.20054
1366985245021,2.19947
1366985305021,2.19371
1366985365021,2.20298
1366985425021,2.20569
1366985485021,2.19108
1366985545021,2.20551
1366985605021,2.20985
1366985665021,2.18191
1366985725021,2.22494
1366985785021,2.22005
1366985845021,2.18725
1366985905021,2.19495
1366985965021,2.21537
1366986025021,2.22165
1366986085021,2.20481
1366986145021,2.20643
1366986205021,2.20122
1366986265021,2.18367
1366986325021,2.19245
1366986385021,2.21826
1366986445021,2.21511
1366986505021,2.22267
1366986565021,2.20704
1366986625021,2.20301
1366986685021,2.20577
1366986745021,2.19853
1366986805021,2.21599
1366986865021,2.19495
1366986925021,2.20458
1366986985021,2.19779
1366987045021,2.21141
1366987105021,2.17903
1366987165021,2.16685
1366987225021,2.18542
1366987285021,2.20127
1366987345021,2.21949
1366987405021,2.18513
1366987465021,2.21776
1366987525021,2.20729
1366987585021,2.18289
1366987645021,2.18372
1366987705021,2.19908
1366987765021,2.21882
1366987825021,2.17529
1366987885021,2.20993
1366987945021,2.19306
1366988005021,2.18283
1366988065021,2.20985
1366988125021,2.17336
1366988185021,2.17430
1366988245021,2.22128
1366988305021,2.19017
1366988365021,2.23446
1366988425030,2.21570
1366988485030,2.18891
1366988545030,2.20779
1366988605030,2.20773
1366988665030,2.19721
1366988725030,2.21151
1366988785030,2.20767
1366988845030,2.19819
1366988905030,2.20750
1366988965030,2.20251
1366989025030,2.19309
1366989085030,2.23635
1366989145030,2.21526
1366989205030,2.20983
1366989265030,2.19103
1366989325030,2.19785
1366989385030,2.21170
1366989445030,2.23582
1366989505030,2.20693
1366989565030,2.23900
1366989625030,2.22083
1366989685030,2.20877
1366989745030,2.20889
1366989805030,2.20273
1366989865030,2.20052
1366989925030,2.21340
1366989985030,2.24083
1366990045030,2.22783
1366990105030,2.24124
1366990165030,2.22050
1366990225030,2.20896
1366990285030,2.21069
1366990345030,2.26625
1366990405030,2.24750
1366990465030,2.23319
1366990525030,2.23036
1366990585030,2.22633
1366990645030,2.22384
1366990705030,2.23337
1366990765030,2.19730
1366990825030,2.24602
1366990885030,2.24896
1366990945030,2.27565
1366991005030,2.24521
1366991065030,2.24640
1366991125030,2.27585
1366991185030,2.22985
1366991245030,2.24890
1366991305030,2.25673
1366991365030,2.24220
1366991425030,2.24918
1366991485030,2.25647
1366991545030,2.25182
1366991605030,2.26020
1366991665030,2.23210
1366991725030,2.24439
1366991785030,2.27101
1366991845030,2.27347
1366991905030,2.24067
1366991965030,2.28551
1366992025040,2.28502
1366992085040,2.25736
1366992145040,2.29263
1366992205040,2.27662
1366992265040,2.28217
1366992325040,2.26009
1366992385040,2.31398
1366992445040,2.27242
1366992505040,2.27920
1366992565040,2.31985
1366992625040,2.30484
1366992685040,2.25347
1366992745040,2.27918
1366992805040,2.29285
1366992865040,2.29955
1366992925040,2.27919
1366992985040,2.29486
1366993045040,2.29845
1366993105040,2.31070
1366993165040,2.32452
1366993225040,2.31298
1366993285040,2.32926
1366993345040,2.33671
1366993405040,2.33215
1366993465040,2.30138
1366993525040,2.36957
1366993585040,2.29428
1366993645040,2.32153
1366993705040,2.33424
1366993765040,2.38015
1366993825040,2.30824
1366993885040,2.26989
1366993945040,2.33372
1366994005040,2.33893
1366994065040,2.33107
1366994125040,2.32605
1366994185040,2.31521
1366994245040,2.30953
1366994305040,2.35484
1366994365040,2.34507
1366994425040,2.37074
1366994485040,2.33053
1366994545040,2.35140
1366994605040,2.35168
1366994665040,2.34098
1366994725040,2.35424
1366994785040,2.34061
1366994845040,2.33522
1366994905040,2.34841
1366994965040,2.32748
1366995025040,2.32586
1366995085040,2.33888
1366995145040,2.36493
1366995205040,2.36127
1366995265040,2.37265
1366995325040,2.33324
1366995385040,2.32977
1366995445040,2.37205
1366995505040,2.33242
1366995565040,2.35480
1366995625050,2.35964
1366995685050,2.35248
1366995745050,2.36011
1366995805049,2.36811
1366995865049,2.36490
1366995925049,2.31303
1366995985049,2.35775
1366996045049,2.35691
1366996105049,2.34892
1366996165049,2.34846
1366996225049,2.38013
1366996285049,2.37295
1366996345049,2.35825
1366996405049,2.34936
1366996465049,2.37009
1366996525049,2.34055
1366996585049,2.35231
1366996645049,2.39398
1366996705049,2.33940
1366996765050,2.37617
1366996825050,2.33728
1366996885050,2.37550
1366996945050,2.37694
1366997005050,2.35089
1366997065050,2.37303
1366997125049,2.34254
1366997185049,2.34005
1366997245049,2.32712
1366997305049,2.32659
1366997365049,2.33481
1366997425049,2.34405
1366997485049,2.33645
1366997545049,2.31792
1366997605049,2.32251
1366997665049,2.34972
1366997725049,2.34830
1366997785050,2.32529
1366997845049,2.33670
1366997905049,2.31692
1366997965049,2.34343
1366998025049,2.34501
1366998085049,2.32404
1366998145050,2.30362
1366998205050,2.31126
1366998265050,2.30445
1366998325050,2.32191
1366998385050,2.28773
1366998445050,2.30957
1366998505049,2.27506
1366998565049,2.31003
1366998625049,2.32337
1366998685049,2.31004
1366998745049,2.30686
1366998805049,2.33985
1366998865049,2.28414
1366998925049,2.29734
1366998985049,2.28218
1366999045049,2.30740
1366999105049,2.30227
1366999165049,2.30995
1366999225059,2.28390
1366999285059,2.28647
1366999345059,2.30379
1366999405059,2.26237
1366999465059,2.27739
1366999525059,2.29067
1366999585059,2.27552
1366999645059,2.28000
1366999705059,2.35012
1366999765059,2.29809